Location: Noverd
(38.0910°N, 121.6877°W)
Time: 11:02:13
(UTC+00:00)

Daily predictions for brighter satellites

Satellite Brightness Start Highest point End
(mag) Time Altitude Azimuth Time Altitude Azimuth Time Altitude Azimuth
Cosmos 2344 4.2 12:10:38 34° NNW 12:15:08 76° ENE 12:26:54 10° SE
COSMOS 2455 3.1 12:23:00 61° SE 12:23:26 63° ESE 12:29:23 10° NE
Cosmos 1934 Rocket 4.4 12:25:03 10° S 12:31:00 60° E 12:37:04 10° NNE
Cosmos 1486 Rocket 4.3 12:36:43 59° SSE 12:37:28 67° ESE 12:42:43 10° NNE
Cosmos 2227 Rocket 3.0 12:34:07 18° N 12:38:07 49° ENE 12:43:34 10° SE
BREEZE-M DEB (TANK) 4.1 12:39:20 49° NW 12:39:50 51° NNW 12:44:52 10° NE
Meteor 2-16 Rocket 4.4 12:37:15 10° N 12:43:23 81° E 12:49:30 10° S
SJ-11-01 4.2 12:47:19 10° NNE 12:52:00 86° ESE 12:52:13 81° SSE
Meteor 2-8 Rocket 4.3 12:51:28 49° SW 12:53:03 68° W 12:59:12 10° N
Meteor 2-21 Rocket 4.3 12:48:12 10° NNW 12:54:17 70° W 13:00:18 10° S
CZ-2C R/B 4.4 12:50:19 10° N 12:51:17 16° N 12:51:17 16° N
Cosmos 1980 Rocket 2.1 12:59:46 26° SSW 13:03:02 89° ESE 13:08:39 10° NNE
Cosmos 836 Rocket 4.3 13:03:46 22° NNW 13:07:10 84° WSW 13:12:23 10° SSE
Meteor 1-11 4.2 13:05:33 10° N 13:11:26 83° W 13:17:17 10° S
Cosmos 1697 Rocket 3.5 13:14:45 32° NW 13:14:45 32° NW 13:19:09 10° N
SL-4 R/B 3.3 13:18:10 23° N 13:19:24 29° NNE 13:22:42 10° E
FengYun 1-2 T 4.3 13:14:45 10° N 13:20:04 53° WNW 13:25:22 10° SSW
SKYMED 2 3.7 13:17:00 10° SSE 13:21:19 77° ENE 13:25:40 10° N
Cosmos 2297 Rocket 3.4 13:24:25 23° SW 13:24:25 23° SW 13:27:12 10° SSW
Cosmos 990 Rocket 4.2 13:17:39 10° S 13:22:50 70° ESE 13:28:03 10° NNE
NOSS 3-1 (C) 2.8 13:23:41 39° WSW 13:25:07 57° NW 13:30:17 10° NNE
Exosat Rocket 3.4 13:26:07 10° NNW 13:31:27 70° WSW 13:36:24 10° S
NOSS 3-1 (A) 3.4 13:27:28 10° SSW 13:31:46 55° ESE 13:36:45 10° NE
Cosmos 1908 Rocket 3.4 13:30:49 10° SSW 13:35:08 75° W 13:39:31 10° N
Cosmos 2219 3.9 13:31:53 10° NNW 13:37:30 54° ENE 13:43:01 10° SE
USA 215 4.2 13:32:21 10° ESE 13:38:29 44° NE 13:44:39 10° NW
H-2A R/B 4.1 13:37:00 10° N 13:39:50 28° NW 13:39:50 28° NW
Cosmos 1812 1.6 13:41:46 10° S 13:44:08 72° E 13:46:31 10° N
IRS-1D 3.6 13:43:32 10° N 13:48:33 52° WNW 13:53:27 10° SSW
Cosmos 1484 Rocket 3.7 13:46:39 10° NNE 13:50:02 46° E 13:53:23 10° S
Cosmos 2263 Rocket 2.1 13:45:49 10° NNW 13:51:27 70° WSW 13:57:01 10° SSE
Cosmos 2221 Rocket 3.6 13:48:22 10° NNW 13:52:52 64° W 13:57:18 10° S
ISS -3.9 13:50:36 19° SW 13:52:55 86° NW 13:56:15 10° NE
Cosmos 1503 Rocket 4.5 13:48:41 10° SW 13:53:26 37° WNW 13:58:14 10° N
IGS 5A 3.3 13:51:56 10° NNE 13:55:55 88° E 13:59:52 10° SSW
Intercosmos 25 Rocket 3.6 13:54:34 10° NNW 13:57:25 31° W 14:00:25 10° SSW
Cosmos 2346 Rocket 4.4 13:52:18 10° N 13:58:27 76° W 14:04:30 10° S
MOS 1 Rocket 4.5 13:55:59 10° NNE 14:00:12 44° E 14:04:33 10° S
Aureole 1 Rocket 4.4 13:55:11 10° SSW 14:02:36 84° ESE 14:09:22 10° NNE
Cosmos 2369 3.8 13:57:26 10° SW 14:02:58 55° WNW 14:08:33 10° NNE
Cosmos 1025 Rocket 3.7 14:01:10 10° NNW 14:05:05 33° W 14:08:56 10° SSW
Cosmos 1400 Rocket 2.8 14:01:56 10° SSW 14:05:35 48° WNW 14:09:17 10° N
FALCON 9 R/B 1.3 14:04:24 14° WSW 14:06:14 34° S 14:08:20 10° ESE
Cosmos 2082 3.9 14:00:54 10° NNW 14:06:37 78° ENE 14:12:16 10° SSE
H-2A ROCKET BODY 4.1 13:49:16 10° WSW 14:07:47 45° S 14:13:02 10° ESE
Cosmos 1602 3.5 14:06:52 10° N 14:09:37 57° E 14:12:21 10° SSE
COSMOS 2455 4.0 14:06:11 14° W 14:09:48 22° NW 14:14:25 10° N
GP-B 3.0 14:05:35 10° N 14:09:56 73° W 14:14:17 10° S
SL-16 R/B 2.6 14:06:48 10° S 14:12:23 69° ESE 14:18:02 10° NNE
Cosmos 2100 Rocket 4.3 14:07:20 10° S 14:13:42 79° E 14:20:03 10° N
Cosmos 2227 Rocket 3.4 14:17:34 10° NW 14:21:42 21° W 14:25:50 10° SSW
Cosmos 2333 Rocket 2.8 14:16:30 10° S 14:22:11 64° ESE 14:27:52 10° NNE
Cosmos 1300 Rocket 4.1 14:18:28 10° SW 14:22:32 37° WNW 14:26:38 10° N
COSMO-SKYMED 1 3.1 14:19:14 10° SSW 14:22:58 34° W 14:26:43 10° NNW
Helios 1A Rocket 2.4 14:22:34 10° SSE 14:25:51 84° ENE 14:29:07 10° NNW
ARIANE 5 R/B 3.8 14:25:29 10° NNE 14:30:16 46° E 14:35:01 10° S
Landsat 7 3.8 14:29:31 10° NNE 14:34:11 87° WNW 14:38:50 10° SSW
